Weather History for The Dalles, OR

Change the Weather History Date:

Tuesday, March 18, 2014

  Actual Average Record
Temperature  
Mean Temperature 46 °F -  
Max Temperature 60 °F 58 °F 74 °F (1978)
Min Temperature 32 °F 38 °F 18 °F (1965)
Degree Days  
Heating Degree Days 19    
Moisture  
Dew Point 32 °F    
Average Humidity 60    
Maximum Humidity 82    
Minimum Humidity 38    
Precipitation  
Precipitation 0.00 in - - ()
Sea Level Pressure  
Sea Level Pressure 30.26 in    
Wind  
Wind Speed 6 mph (ENE)    
Max Wind Speed 15 mph    
Max Gust Speed -    
Visibility 10 miles    
Events      
Averages and records for this station are not official NWS values.
T = Trace of Precipitation, MM = Missing Value Source: NWS Daily Summary

Daily Weather History Graph

Daily Weather History Graph

Search for Another Location

Airport:

Trip Planner

Search our weather history database for the weather conditions in past years. The results will help you decide how hot, cold, wet, or windy it might be!

Date:

Astronomy

Mar. 18, 2014 Rise Set
Actual Time 7:11 AM PDT 7:14 PM PDT
Civil Twilight 6:41 AM PDT 7:44 PM PDT
Nautical Twilight 6:07 AM PDT 8:19 PM PDT
Astronomical Twilight 5:31 AM PDT 8:54 PM PDT
Moon 9:45 PM PDT (3/18) 7:56 AM PDT (3/18)
Length of Visible Light 13h 02m
Length of Day
12h 03m
Waning Gibbous, 96% of the Moon is Illuminated
Mar 18
Waning Gibbous
Mar 23
Last Quarter
Mar 30
New
Apr 7
First Quarter
Apr 15
Full

Hourly Weather History & Observations

Time (PDT) Temp. Windchill Dew Point Humidity Pressure Visibility Wind Dir Wind Speed Gust Speed Precip Events Conditions
12:53 AM 43.0 °F 35.7 °F 30.0 °F 60% 30.31 in 10.0 mi West 15.0 mph - N/A   Clear
1:53 AM 41.0 °F 39.0 °F 30.0 °F 65% 30.31 in 10.0 mi North 3.5 mph - N/A   Clear
2:53 AM 39.9 °F 36.7 °F 28.9 °F 65% 30.32 in 10.0 mi NW 4.6 mph - N/A   Clear
3:53 AM 39.0 °F 35.7 °F 30.0 °F 70% 30.31 in 10.0 mi West 4.6 mph - N/A   Clear
4:53 AM 33.1 °F 28.7 °F 28.0 °F 82% 30.32 in 10.0 mi SE 4.6 mph - N/A   Clear
5:53 AM 35.1 °F 28.6 °F 28.0 °F 76% 30.32 in 10.0 mi ESE 8.1 mph - N/A   Clear
6:53 AM 34.0 °F 27.2 °F 27.0 °F 75% 30.32 in 10.0 mi SE 8.1 mph - N/A   Clear
7:53 AM 32.0 °F - 27.0 °F 82% 30.34 in 10.0 mi Calm Calm - N/A   Clear
8:53 AM 39.0 °F 36.8 °F 28.9 °F 67% 30.35 in 10.0 mi ESE 3.5 mph - N/A   Clear
9:53 AM 44.1 °F 42.5 °F 33.1 °F 65% 30.35 in 10.0 mi NNE 3.5 mph - N/A   Clear
10:53 AM 46.0 °F - 34.0 °F 63% 30.33 in 10.0 mi Calm Calm - N/A   Clear
11:53 AM 50.0 °F - 32.0 °F 50% 30.32 in 10.0 mi Variable 3.5 mph - N/A   Clear
12:53 PM 52.0 °F - 33.1 °F 49% 30.29 in 10.0 mi Calm Calm - N/A   Clear
1:53 PM 55.0 °F - 33.1 °F 43% 30.26 in 10.0 mi WNW 4.6 mph - N/A   Clear
2:53 PM 55.9 °F - 35.1 °F 45% 30.24 in 10.0 mi Calm Calm - N/A   Clear
3:53 PM 59.0 °F - 34.0 °F 39% 30.22 in 10.0 mi ESE 3.5 mph - N/A   Clear
4:53 PM 60.1 °F - 34.0 °F 38% 30.20 in 10.0 mi East 3.5 mph - N/A   Clear
5:53 PM 57.9 °F - 33.1 °F 39% 30.18 in 10.0 mi East 5.8 mph - N/A   Clear
6:53 PM 55.0 °F - 33.1 °F 43% 30.18 in 10.0 mi ENE 4.6 mph - N/A   Mostly Cloudy
7:53 PM 50.0 °F - 36.0 °F 59% 30.18 in 10.0 mi NNE 4.6 mph - N/A   Overcast
8:53 PM 46.9 °F - 35.1 °F 63% 30.18 in 10.0 mi Calm Calm - N/A   Clear
9:53 PM 46.0 °F - 35.1 °F 66% 30.17 in 10.0 mi Calm Calm - N/A   Clear
10:53 PM 46.0 °F - 34.0 °F 63% 30.17 in 10.0 mi Calm Calm - N/A   Clear
11:53 PM 43.0 °F - 34.0 °F 71% 30.17 in 10.0 mi Calm Calm - N/A   Clear